Regional Weather Roundup
Issued by NWS Sioux Falls, SD

Home | Current Version | Previous Version | Text Only | Print | Product List | Glossary On
Versions: 1 2 3 4 5 6 7 8 9 10 11 12 13 14 15 16 17 18 19 20 21 22 23 24 25 26 27 28 29 30 31 32 33 34 35 36 37 38 39 40 41 42 43 44 45 46 47 48 49 50
241
ASUS43 KFSD 081910
RWRFSD

WEATHER ROUNDUP FOR SE SOUTH DAKOTA/SW MINNESOTA/NW IOWA
NATIONAL WEATHER SERVICE SIOUX FALLS SD
100 PM CST MON FEB 08 2016

NOTE: "FAIR" INDICATES FEW OR NO CLOUDS BELOW 12,000 FEET WITH NO
SIGNIFICANT WEATHER AND OR OBSTRUCTIONS TO VISIBILITY.


SDZ038>040-050-052>070-082000-
SOUTHEAST SOUTH DAKOTA

CITY           SKY/WX    TMP DP  RH WIND       PRES   REMARKS
BROOKINGS      LGT SNOW  19  13  77 N31G38    30.06S WCI   0
CHAMBERLAIN    SUNNY     33  19  56 NW23G35   30.22F WCI  21
HURON          SUNNY     30  16  56 N24G37    30.16F WCI  16
MADISON        LGT SNOW  21  19  93 N30G40    30.10S WCI   3
MITCHELL       SUNNY     31  17  56 NW36G41   30.18F WCI  15
SIOUX FALLS    FLURRIES  23  14  68 NW24G31   30.09F WCI   7
WINNER         FAIR      34  17  50 NW32      30.25F WCI  20
YANKTON        MOSUNNY  N/A N/A N/A NW31G40   30.13F
$$

MNZ071-072-080-081-089-090-097-098-082000-
SOUTHWEST MINNESOTA

CITY           SKY/WX    TMP DP  RH WIND       PRES   REMARKS
FAIRMONT       CLOUDY   N/A N/A N/A NW29G36   29.94F
JACKSON        CLOUDY    14   9  79 NW40G51   29.97F WCI  -9
LUVERNE        CLOUDY    21  14  73 N21G29    30.08F WCI   6
MARSHALL       LGT SNOW  16   9  73 N33G39    30.05F WCI  -5
MONTEVIDEO     CLOUDY    18  12  79 N31G43    30.09S FOG     WCI  -2
PIPESTONE      SUNNY     21  10  63 N17G30    30.05F WCI   7
REDWOOD FALLS  FLURRIES  16   7  67 NW21G35   30.03F WCI  -1
TRACY          LGT SNOW  17  11  80 N22G38    30.06S WCI  -1
WINDOM         SNOW      14   9  79 NW32G41   29.99F VSB 1/4 WCI  -7
WORTHINGTON    PTSUNNY  N/A N/A N/A NW33G41   30.03F
$$

IAZ001>003-012>014-020>022-031-032-NEZ013-014-SDZ071-082000-
NORTHWEST IOWA

CITY           SKY/WX    TMP DP  RH WIND       PRES   REMARKS
CHEROKEE       LGT SNOW  19  14  80 N23G35    30.06F WCI   1
DENISON        LGT SNOW  21  16  79 N20G35    30.04F WCI   6
ESTHERVILLE    LGT SNOW  14   9  80 NW39G45   29.99S WCI  -9
LE MARS        CLOUDY    25  18  74 N22G33    30.10F WCI  10
ORANGE CITY      N/A     19  18  93 N16G25    30.06F WCI   5
SHELDON        SNOW      18  14  86 N31       30.04F VSB 1/4 WCI  -2
SIOUX CITY     CLOUDY    28  16  60 N32G43    30.08F WCI  12
SPENCER        LGT SNOW  15   8  73 NW33G41   30.02S WCI  -6
STORM LAKE     LGT SNOW  18  14  86 N29G41    30.01F WCI  -2
$$

ABBREVIATIONS USED IN REMARKS
   TC - TEMPERATURE IN CELSIUS
  WCI - WIND CHILL INDEX
   HX - HEAT INDEX
  VSB - VISIBILITY





USA.gov is the U.S. government's official web portal to all federal, state and local government web resources and services.